Wetbulb
52.77 51.72 50.83 50.37 50.23 50.23 50.15 49.64 48.77 48.75 49.02 49.09 48.54 48.19 47.77 47.39 47.07 47.04 47.13 47.30 46.78 46.37 45.92 45.67 45.50 45.32 45.20 45.11 45.27 45.07 44.68 44.23 44.04 43.58 43.47 43.76 43.88 43.78 43.53 43.62 43.66 43.58 43.25 43.13 42.92 43.09 43.21 43.05 43.05 43.05 42.80 42.04 41.79 41.19 40.67 40.14 40.35 40.36 40.35 40.00 39.55 38.89 38.33 38.03 37.73 37.67 37.63 37.56 37.95
51.96 50.50 49.57 48.53 48.43 48.88 49.12 48.57 48.23 48.23 48.41 48.74 48.40 48.19 47.86 47.77 47.69 47.80 47.78 47.70 47.16 46.63 46.13 45.83 45.83 46.00 46.08 46.11 46.17 45.73 45.16 44.52 44.26 44.03 43.97 44.06 44.02 43.90 43.83 43.99 43.66 43.42 43.13 42.96 42.88 43.05 43.09 42.71 42.84 42.76 42.51 41.97 41.34 40.49 39.71 39.16 39.84 39.93 39.48 38.54 38.41 38.04 37.86 37.75 37.10 36.75 36.73 36.82 36.69
51.12 49.95 49.40 49.25 49.06 48.96 48.74 48.43 48.37 48.19 48.22 48.29 48.31 48.25 48.31 48.41 48.47 48.43 48.19 47.74 47.28 46.77 46.35 45.92 46.33 46.50 46.24 45.91 45.65 45.29 44.86 44.65 44.55 44.49 44.46 44.23 44.19 44.11 44.11 43.78 43.33 43.09 43.00 43.21 43.17 43.17 43.09 42.80 42.55 42.22 41.84 41.60 40.63 39.98 39.51 39.23 39.64 39.43 38.83 37.74 37.87 38.02 38.17 38.07 36.75 36.26 36.38 36.49 35.87
50.63 49.69 49.22 48.90 48.64 48.56 48.48 48.57 48.30 48.16 48.08 48.22 48.18 48.26 48.54 48.76 48.71 48.41 47.77 47.05 46.61 46.17 45.85 45.67 45.89 46.05 46.00 45.43 44.87 44.52 44.31 43.97 44.37 44.54 44.44 44.42 44.12 43.74 43.49 43.37 43.29 43.09 43.09 43.13 43.13 42.88 42.59 42.47 42.14 41.64 40.97 40.08 39.39 39.09 39.14 39.53 39.08 38.80 38.51 37.86 37.77 37.67 37.59 37.60 36.84 36.84 36.83 36.35 35.49
49.36 49.33 49.22 48.91 48.65 48.70 48.86 48.76 48.33 48.06 47.97 48.11 47.95 47.87 47.94 48.13 47.97 47.49 46.81 46.00 45.67 45.41 45.42 45.44 45.76 45.71 45.36 44.87 44.15 43.71 43.48 43.29 43.09 43.67 44.17 43.76 43.17 42.75 42.59 42.59 42.39 42.26 42.38 42.66 42.57 42.20 41.88 41.55 41.39 40.85 40.05 39.16 38.91 38.56 38.40 38.43 38.16 37.77 37.57 37.80 37.51 37.24 37.10 36.76 36.83 36.69 36.38 35.93 35.40
49.20 49.12 49.19 49.10 48.84 48.87 48.85 48.58 48.03 47.81 47.62 47.56 47.05 46.72 46.67 46.89 46.65 46.31 45.74 45.26 45.16 45.02 44.77 44.30 44.48 44.38 44.06 43.90 43.44 43.28 43.08 43.21 43.13 43.30 43.21 42.63 42.01 41.69 41.52 41.48 41.35 41.46 41.65 41.70 41.19 40.84 40.72 40.45 40.45 39.87 39.16 38.69 37.96 37.50 37.40 37.65 37.23 36.71 36.44 36.60 36.54 36.31 35.97 35.68 35.92 35.91 35.51 34.71 34.54
49.56 49.29 48.88 48.67 48.57 48.30 48.14 47.78 47.43 47.12 46.90 46.52 45.90 45.62 45.52 45.67 45.54 45.14 44.86 44.82 44.66 44.27 43.84 43.32 43.79 43.82 43.66 43.32 43.00 42.71 42.59 42.59 42.55 42.38 41.93 41.35 40.90 40.66 40.45 40.44 40.42 40.35 40.26 39.95 39.78 39.69 39.64 39.56 39.53 38.89 38.09 37.82 37.71 37.03 36.48 36.82 36.44 35.82 35.26 34.86 35.22 35.28 34.67 33.76 34.47 34.66 34.33 33.55 33.78
49.11 48.68 48.34 48.06 47.68 47.26 46.93 46.64 46.40 46.27 45.97 45.67 45.22 44.78 44.73 44.88 44.63 44.39 44.23 44.14 43.87 43.63 43.59 43.69 43.98 43.83 43.35 42.83 42.34 42.06 41.85 41.68 41.39 41.19 40.86 40.48 40.06 39.82 39.65 39.50 39.31 38.99 38.81 38.80 38.83 38.80 38.66 38.80 38.41 37.91 37.47 37.46 37.10 36.38 35.63 35.35 35.06 34.59 33.94 33.46 33.79 33.82 33.37 32.87 32.89 33.13 33.36 33.07 33.31
47.48 47.29 47.18 47.14 46.78 46.36 46.03 45.82 45.67 45.46 45.22 44.86 44.63 44.44 44.31 44.27 44.04 43.83 43.58 43.50 43.26 43.25 43.37 43.50 43.11 42.71 42.30 41.89 41.40 41.19 41.03 40.74 40.40 40.10 39.89 39.71 39.29 38.91 38.66 38.38 37.93 37.74 37.63 37.74 37.75 37.59 37.47 37.55 37.20 36.81 36.69 36.55 35.99 35.46 34.99 34.63 34.09 33.51 33.06 32.75 32.60 32.62 32.64 32.44 32.31 32.42 32.48 32.45 32.93
46.01 45.97 46.05 45.97 45.73 45.39 45.22 45.20 44.98 44.73 44.50 44.06 43.99 43.87 43.63 43.11 43.39 43.42 43.34 43.07 42.78 42.67 42.59 42.39 42.06 41.68 41.31 40.93 40.60 40.35 40.18 39.93 39.52 39.22 38.91 38.63 38.24 37.91 37.57 37.21 36.77 36.69 36.67 36.63 36.64 36.63 36.48 36.31 35.86 35.52 35.25 35.03 34.56 34.22 34.03 33.95 33.30 32.84 32.38 32.54 32.21 31.87 31.87 31.89 31.93 32.00 32.04 32.00 32.58
44.99 44.99 44.99 44.95 44.81 44.71 44.65 44.95 44.42 44.12 43.82 43.63 43.47 43.35 43.15 42.91 42.99 42.87 42.75 42.47 42.09 41.79 41.49 41.47 41.30 40.93 40.55 40.13 39.83 39.58 39.38 39.10 38.69 38.17 37.84 37.41 37.11 36.73 36.54 36.16 36.02 35.79 35.73 35.71 35.74 35.73 35.66 35.49 34.99 34.45 34.20 34.22 34.03 33.81 33.57 33.30 32.75 32.10 31.55 31.36 31.34 31.43 31.43 31.59 31.46 31.52 31.54 31.41 32.14
44.39 44.22 44.22 44.06 44.10 44.18 44.31 44.52 44.09 43.66 43.32 43.16 43.04 42.96 42.92 42.84 42.55 42.17 41.74 41.43 41.15 40.85 40.80 40.95 40.75 40.38 39.88 39.30 38.97 38.48 38.20 38.08 37.63 37.22 36.83 36.44 36.14 35.90 35.75 35.62 35.52 35.29 35.13 35.07 35.19 35.24 35.17 34.77 34.42 33.96 33.64 33.56 33.66 33.56 33.23 32.76 32.28 31.71 31.18 30.84 30.75 30.86 31.18 31.41 31.16 31.07 31.04 31.20 31.77
43.84 43.68 43.72 43.59 43.63 43.72 43.67 43.67 43.71 43.42 43.09 42.67 42.55 42.42 42.23 42.17 41.83 41.35 40.95 40.62 40.36 40.12 40.17 40.24 40.00 39.55 38.97 38.44 38.11 37.62 37.37 37.00 36.75 36.44 36.04 35.85 35.54 35.36 35.21 35.11 34.96 34.85 34.77 34.79 35.05 35.05 34.95 34.49 34.16 33.70 33.38 33.22 33.20 32.92 32.70 32.28 31.61 31.14 30.70 30.25 30.07 30.43 30.77 31.09 30.57 30.41 30.50 30.86 31.16
43.34 43.21 43.21 43.21 43.21 43.21 43.11 42.88 42.95 42.96 42.84 42.50 42.31 42.13 41.93 41.69 41.22 40.91 40.44 40.09 39.80 39.48 39.28 39.25 38.89 38.53 38.08 37.47 37.04 36.64 36.39 36.29 35.99 35.75 35.48 35.20 35.11 34.89 34.71 34.43 34.40 34.42 34.45 34.69 34.78 34.75 34.59 34.38 34.08 33.79 33.48 33.06 32.67 32.35 32.17 32.11 31.50 31.07 30.71 30.36 30.70 30.88 30.96 31.04 30.68 30.68 30.84 31.27 31.11
43.03 42.95 42.87 42.91 42.90 42.80 42.66 42.45 42.43 42.32 42.23 41.88 41.91 41.77 41.50 41.18 40.75 40.17 39.76 39.49 39.11 38.81 38.61 38.15 37.57 37.25 36.91 36.52 36.26 35.96 35.79 35.64 35.45 35.17 34.77 34.50 34.51 34.39 34.14 33.90 33.82 34.06 34.14 34.26 34.37 34.39 34.29 34.12 34.24 34.18 34.05 33.79 33.18 32.92 33.01 33.16 32.95 32.71 32.53 32.59 32.89 32.66 32.33 32.22 32.26 32.42 32.57 32.76 32.31
42.74 42.78 42.83 42.78 42.56 42.45 42.30 42.09 41.93 41.69 41.42 41.10 41.06 40.88 40.70 40.35 40.11 39.58 39.11 38.78 38.41 38.03 37.38 36.70 36.35 36.15 35.99 35.90 35.66 35.51 35.35 35.22 34.99 34.81 34.40 34.12 33.89 33.82 33.63 33.54 33.54 33.54 33.73 33.85 33.88 33.92 33.97 34.14 34.42 34.63 34.69 34.60 34.31 34.18 34.27 34.47 34.58 34.62 34.80 35.02 35.26 35.08 34.93 34.83 34.89 34.87 34.94 35.06 34.83
42.65 42.60 42.64 42.59 42.36 42.03 41.84 41.55 41.32 40.86 40.54 40.14 40.14 39.88 39.79 39.48 39.24 38.75 38.22 37.93 37.55 37.03 36.27 35.75 35.73 35.51 35.47 35.32 35.32 35.38 35.21 35.02 34.76 34.50 34.09 33.87 33.83 33.62 33.56 33.46 33.50 33.58 33.71 33.73 33.55 33.49 33.46 33.71 34.08 34.39 34.46 34.45 34.16 33.89 33.72 33.75 33.68 33.68 33.91 34.10 34.67 35.04 35.21 34.93 35.11 35.31 35.42 35.52 35.73
42.30 42.39 42.25 42.02 41.69 41.46 41.10 40.86 40.45 40.18 39.74 39.38 39.20 39.11 39.02 38.72 38.33 37.82 37.50 37.18 36.89 36.25 35.71 35.29 35.47 35.42 35.37 35.23 35.22 35.12 34.96 34.71 34.44 34.22 34.10 33.92 33.91 33.81 33.79 33.73 33.94 33.99 34.05 33.99 33.73 33.40 33.24 33.14 33.33 33.48 33.53 33.30 32.99 32.62 32.14 31.89 31.55 31.41 31.40 31.47 31.96 32.55 32.95 32.97 33.50 34.01 34.19 34.09 34.06
41.78 41.69 41.43 41.28 40.92 40.68 40.28 39.92 39.73 39.46 39.19 38.92 38.56 38.38 38.12 37.82 37.61 37.18 36.82 36.59 36.31 35.92 35.54 35.19 35.27 35.25 35.10 34.87 34.74 34.56 34.41 34.28 34.12 34.21 34.37 34.37 34.36 34.23 34.16 34.14 34.16 34.26 34.12 34.01 33.68 33.36 33.09 32.93 32.86 32.87 32.85 32.70 32.43 32.10 31.64 31.32 30.65 30.40 30.38 30.36 30.62 30.87 31.21 31.61 32.15 32.88 33.56 33.83 33.33
41.01 40.74 40.60 40.33 40.14 39.83 39.46 39.27 39.09 38.82 38.55 38.28 37.84 37.49 37.31 37.19 37.03 36.65 36.23 36.02 35.94 35.83 35.49 35.14 34.90 34.65 34.48 34.35 34.15 34.01 34.12 34.19 34.37 34.40 34.36 34.44 34.26 34.01 33.95 33.82 33.51 33.33 33.17 32.97 32.70 32.46 32.23 32.18 32.14 32.11 32.07 31.98 31.59 31.20 30.72 30.10 29.67 29.42 29.40 29.58 29.66 29.91 29.93 30.18 30.68 31.45 32.28 33.04 32.94
40.33 40.14 39.87 39.70 39.38 39.10 38.82 38.55 38.37 38.10 37.83 37.48 37.30 36.95 36.82 36.70 36.50 36.24 36.04 35.83 35.68 35.48 35.07 34.57 34.27 33.94 33.80 33.77 33.60 33.69 33.92 34.10 34.19 34.01 33.82 33.64 33.38 33.20 32.91 32.57 32.12 31.93 31.80 31.55 31.37 31.18 31.10 30.97 30.81 30.72 30.57 30.47 30.10 29.74 29.24 28.62 28.29 28.18 28.36 28.54 28.78 28.94 29.05 29.12 29.43 30.00 30.78 31.73 32.42
39.65 39.38 39.20 39.02 38.74 38.38 38.19 37.92 37.74 37.56 37.29 37.03 36.77 36.68 36.55 36.29 36.09 35.97 35.78 35.63 35.26 34.82 34.37 34.02 33.92 33.69 33.58 33.58 33.49 33.60 33.68 33.81 33.79 33.62 33.44 33.20 32.93 32.70 32.40 32.07 31.64 31.24 30.95 30.71 30.47 30.37 30.27 30.05 29.77 29.53 29.26 28.92 28.51 28.43 28.34 28.18 27.47 27.21 27.18 27.26 27.38 27.58 27.76 27.67 27.91 28.36 29.06 30.01 30.88
38.92 38.74 38.56 38.37 38.10 37.74 37.47 37.47 37.29 36.94 36.76 36.49 36.41 36.23 36.01 35.83 35.63 35.44 35.25 35.04 34.60 34.29 34.04 33.95 33.86 33.86 33.77 33.83 33.77 33.66 33.53 33.46 33.37 33.48 33.49 33.49 33.31 33.13 32.91 32.47 31.91 31.38 30.93 30.56 30.20 29.87 29.68 29.47 29.10 28.71 28.34 27.92 27.49 27.58 27.93 28.54 27.93 27.30 26.74 26.49 26.49 26.64 26.66 26.66 26.73 27.00 27.53 28.69 29.61
38.21 38.11 38.01 37.78 37.56 37.38 37.11 37.02 36.67 36.40 36.22 35.95 35.86 35.60 35.42 35.20 35.09 34.97 34.81 34.61 34.34 34.18 34.09 34.05 34.15 34.09 34.10 34.15 34.04 33.87 33.62 33.31 33.31 33.54 33.65 33.90 33.74 33.54 33.17 32.89 32.35 31.87 31.57 31.30 31.40 30.83 30.02 29.00 28.36 27.92 27.46 27.10 27.40 27.85 28.83 29.95 28.37 27.90 27.89 27.81 27.58 27.26 26.85 26.64 26.55 27.09 27.80 27.91 28.63
37.58 37.40 37.30 37.20 37.02 36.84 36.75 36.40 36.13 35.86 35.59 35.50 35.33 35.15 34.93 34.76 34.68 34.55 34.39 34.35 34.27 34.24 34.18 34.18 34.24 34.20 34.15 34.06 33.99 33.98 33.77 33.62 33.56 33.60 33.71 33.69 33.54 33.25 32.82 32.48 32.37 32.31 32.29 32.31 32.94 32.77 31.82 30.40 29.33 28.08 27.05 27.12 27.71 28.27 28.82 29.13 28.62 28.61 28.75 29.00 29.20 28.61 27.92 27.26 27.26 27.92 28.46 28.01 28.29
37.00 36.86 36.68 36.59 36.49 36.31 36.04 35.86 35.59 35.50 35.24 35.06 34.88 34.79 34.58 34.58 34.50 34.50 34.28 34.10 34.12 34.18 34.09 34.00 33.89 33.85 33.86 33.77 33.76 33.80 33.78 33.89 33.76 33.51 33.23 32.88 32.56 32.11 31.86 31.73 31.78 32.05 32.56 33.01 32.97 32.87 32.61 32.29 31.31 30.05 28.74 28.27 28.35 28.23 28.07 28.07 28.49 28.75 28.88 28.84 29.16 29.24 28.99 28.26 27.67 27.89 28.64 29.64 29.25
36.41 36.32 36.14 36.23 35.96 35.77 35.67 35.50 35.33 35.15 34.93 34.76 34.61 34.49 34.49 34.50 34.50 34.32 34.10 33.83 33.94 33.92 33.89 33.71 33.64 33.42 33.42 33.71 33.46 33.43 33.47 33.61 33.45 33.04 32.58 31.88 31.39 30.96 30.84 30.79 31.16 31.77 32.42 32.81 32.62 32.35 32.07 31.84 31.65 31.24 30.55 29.30 28.53 28.50 28.73 28.90 29.14 28.93 28.85 29.17 29.37 29.36 29.27 29.03 28.61 28.61 28.91 29.78 29.46
35.96 35.87 35.78 35.78 35.59 35.40 35.40 35.24 35.06 34.79 34.70 34.61 34.58 34.58 34.50 34.48 34.37 34.10 33.92 33.76 33.74 33.61 33.56 33.54 33.61 33.60 33.51 33.38 33.28 33.20 33.22 33.18 32.72 32.36 31.77 31.32 30.93 30.84 30.86 31.05 31.29 31.75 32.29 32.66 32.33 32.00 31.73 31.39 31.28 31.18 30.65 29.49 28.60 28.86 29.44 29.22 29.35 29.22 29.16 29.38 29.90 30.09 30.21 30.14 30.04 30.13 30.21 29.82 29.82
35.78 35.69 35.51 35.32 35.22 35.13 35.13 34.96 34.78 34.69 34.61 34.67 34.59 34.64 34.46 34.30 34.12 33.94 33.72 33.61 33.45 33.29 33.36 33.34 33.44 33.32 33.13 32.79 32.84 32.75 32.57 32.31 31.91 31.50 31.20 31.04 30.79 30.77 30.75 30.72 30.66 31.25 31.81 32.44 32.07 31.84 31.53 31.16 31.03 31.01 30.77 30.06 28.43 28.63 28.97 27.54 27.58 28.08 28.44 28.03 29.36 30.22 30.65 31.00 30.99 30.68 30.37 30.28 30.26
35.78 35.51 35.32 35.13 35.04 34.95 34.86 34.69 34.78 34.79 34.79 34.76 34.68 34.55 34.30 34.03 33.72 33.63 33.38 33.25 33.00 33.02 32.97 33.09 32.80 32.56 32.31 32.16 32.21 32.02 31.68 31.48 31.30 31.13 30.93 30.75 30.59 30.52 30.41 30.27 30.29 30.81 31.51 31.91 31.65 31.46 31.33 31.03 30.86 30.82 30.62 30.44 28.77 28.71 29.03 28.17 27.30 26.59 26.48 27.42 29.08 30.21 30.59 30.61 30.64 30.82 31.27 32.15 32.82
35.68 35.50 35.23 34.96 34.86 34.77 34.69 34.78 34.88 34.84 34.84 34.84 34.64 34.30 33.99 33.72 33.38 33.25 33.11 32.87 32.70 32.65 32.59 32.48 32.07 31.73 31.68 31.77 31.73 31.48 31.21 31.00 30.84 30.68 30.52 30.14 29.81 29.52 29.24 28.90 28.97 29.91 30.85 31.37 31.11 31.01 30.95 30.95 30.84 30.60 30.37 30.26 28.40 28.18 28.56 28.13 28.29 28.50 28.92 30.18 31.21 32.02 32.60 33.16 33.37 33.71 34.06 34.35 34.89
35.59 35.41 35.14 34.87 34.60 34.60 34.69 34.79 34.84 34.86 34.82 34.62 34.27 34.00 33.61 33.27 33.08 32.97 32.74 32.56 32.35 32.03 31.83 31.59 31.26 31.06 31.06 31.15 31.25 31.02 30.75 30.56 30.29 29.97 29.70 29.33 28.97 28.65 28.36 28.16 28.17 29.11 30.24 30.93 30.91 30.91 30.84 30.84 30.59 30.34 29.98 29.91 28.48 28.33 28.82 29.00 29.08 29.62 30.36 30.96 31.50 31.82 32.04 31.95 31.02 30.93 31.36 31.97 32.89
35.42 35.24 34.97 34.61 34.60 34.60 34.61 34.76 34.86 34.83 34.59 34.34 33.96 33.58 33.24 32.95 32.74 32.59 32.35 32.24 31.86 31.59 31.24 30.91 30.68 30.52 30.51 30.65 30.65 30.57 30.48 30.22 30.04 29.70 29.49 29.22 28.90 28.65 28.61 28.63 29.15 29.66 30.36 30.68 30.68 30.87 30.87 30.77 30.35 29.93 29.68 29.76 28.42 27.99 27.92 27.81 27.68 28.11 28.40 28.47 28.47 28.29 28.02 27.87 28.05 28.50 29.13 29.90 31.18
35.29 35.02 34.84 34.58 34.52 34.52 34.67 34.73 34.80 34.61 34.32 33.86 33.55 33.09 32.70 32.31 31.98 31.88 31.76 31.84 31.67 31.34 31.05 30.71 30.31 30.23 30.23 30.37 30.32 30.21 30.23 30.25 30.16 29.97 29.74 29.43 28.87 28.60 28.37 28.46 29.07 29.90 30.62 30.79 30.98 31.06 30.95 30.58 30.07 29.84 29.64 29.75 29.18 27.70 26.02 25.16 24.60 24.60 24.96 25.23 25.34 25.70 26.24 26.93 27.92 29.10 30.46 31.56 32.46
35.13 34.86 34.67 34.49 34.49 34.50 34.64 34.62 34.61 34.29 33.93 33.39 32.91 32.43 32.19 31.91 31.65 31.58 31.54 31.51 31.36 31.01 30.66 30.31 30.12 29.97 29.99 30.01 30.04 30.07 30.16 30.28 30.41 30.16 29.69 28.98 28.06 27.39 27.01 26.90 27.48 29.16 30.81 31.24 31.43 31.21 30.79 30.25 29.84 29.64 29.55 29.24 29.26 27.92 26.15 24.78 23.64 23.25 23.45 23.96 24.25 25.14 26.28 27.54 29.35 31.16 32.55 33.23 33.01
35.27 34.82 34.59 34.41 34.46 34.57 34.54 34.44 34.18 33.82 33.25 32.56 32.08 31.70 31.67 31.68 31.63 31.65 31.61 31.44 30.93 30.34 29.80 29.53 29.36 29.27 29.18 29.24 29.43 29.69 29.91 30.09 30.09 29.77 29.15 28.23 27.03 26.21 25.78 25.52 26.03 28.33 30.81 31.60 31.60 31.24 30.62 29.99 29.68 29.55 29.48 29.21 28.33 26.57 24.87 24.15 23.52 23.15 23.09 23.12 24.25 25.83 27.75 29.82 31.32 32.44 32.94 32.75 32.31
35.42 35.15 34.72 34.45 34.50 34.41 34.31 34.10 33.64 32.96 32.38 31.80 31.54 31.42 31.37 31.44 31.49 31.57 31.45 31.03 30.25 29.51 28.86 28.64 28.42 28.15 28.08 28.14 28.43 28.74 29.00 29.18 28.98 28.63 28.11 27.62 26.67 25.78 25.07 24.63 24.97 27.12 29.84 31.67 31.50 31.06 30.54 29.89 29.73 29.42 28.85 28.03 27.09 25.50 23.97 23.37 23.16 22.83 23.00 24.07 25.75 27.53 29.18 30.46 31.29 32.08 32.59 32.31 31.93
35.59 35.30 34.95 34.65 34.45 34.30 34.15 33.67 32.98 32.29 31.80 31.42 31.42 31.36 31.37 31.44 31.22 31.12 30.84 30.30 29.34 28.58 28.11 27.79 27.45 27.25 27.24 27.28 27.38 27.48 27.73 27.89 27.81 27.58 27.36 27.09 26.67 25.87 25.07 24.28 24.97 26.93 29.41 31.44 31.41 30.97 30.45 29.98 29.65 29.24 28.38 26.65 25.95 24.58 23.01 22.62 22.83 23.27 24.17 25.51 26.65 27.81 28.83 29.76 30.17 30.84 31.43 31.77 31.93
35.67 35.51 35.19 34.79 34.45 34.08 33.62 33.14 32.45 31.92 31.52 31.25 31.25 31.34 31.26 31.17 30.95 30.65 30.25 29.60 28.85 28.13 27.61 27.18 26.93 26.90 27.00 27.02 27.10 27.09 27.09 27.30 27.48 27.53 27.34 27.17 26.95 26.56 25.94 25.04 25.87 27.45 29.50 31.35 31.41 31.14 30.64 30.11 29.93 29.51 28.59 26.14 24.88 23.64 22.71 22.20 22.97 23.90 24.71 25.34 25.70 26.12 26.75 27.66 28.23 28.23 28.67 30.25 31.94
35.89 35.62 35.32 34.86 34.34 33.87 33.25 32.47 32.10 31.71 31.44 31.20 31.00 30.95 30.84 30.68 30.34 30.14 29.77 29.10 28.53 28.11 27.51 27.00 26.84 26.94 27.15 27.18 27.18 27.11 27.18 27.34 27.47 27.43 27.26 27.11 27.45 27.51 27.07 25.88 26.12 27.17 28.77 31.02 31.43 31.32 30.94 30.59 30.36 29.94 28.76 25.62 24.32 23.37 22.89 22.56 22.97 23.78 24.41 24.17 24.26 24.71 25.32 25.67 25.98 25.71 25.89 27.29 28.90
35.89 35.62 35.16 34.61 34.13 33.42 32.81 32.14 31.75 31.56 31.44 31.09 30.82 30.65 30.49 30.39 29.93 29.62 29.17 28.58 28.15 27.78 27.50 27.11 26.99 27.01 27.07 27.19 26.99 26.76 26.49 26.48 26.58 26.56 26.49 26.55 27.15 27.07 26.22 24.69 24.55 25.39 27.21 30.08 31.34 31.45 31.20 30.97 30.81 30.39 29.18 25.97 24.17 23.61 23.52 23.06 23.24 23.81 24.23 23.82 24.09 24.80 25.40 25.14 24.80 24.87 24.87 25.16 25.88
MSLP
1001.56 1001.36 1001.44 1001.76 1002.12 1002.56 1003.04 1003.52 1003.92 1004.32 1004.68 1005.12 1005.64 1006.20 1006.64 1007.12 1007.64 1008.12 1008.60 1008.92 1009.28 1009.60 1009.92 1010.32 1010.68 1011.08 1011.48 1011.72 1011.92 1012.20 1012.48 1012.68 1012.88 1013.08 1013.20 1013.36 1013.52 1013.64 1013.80 1013.92 1014.08 1014.20 1014.36 1014.52 1014.64 1014.80 1015.00 1015.16 1015.36 1015.52 1015.76 1015.92 1016.12 1016.32 1016.44 1016.52 1016.56 1016.64 1016.80 1016.92 1017.08 1017.16 1017.16 1017.20 1017.20 1017.28 1017.36 1017.44 1017.52
1002.36 1001.88 1001.60 1001.80 1002.20 1002.64 1003.12 1003.64 1004.08 1004.52 1004.92 1005.32 1005.76 1006.20 1006.64 1007.04 1007.52 1008.04 1008.52 1008.92 1009.20 1009.48 1009.88 1010.36 1010.80 1011.16 1011.48 1011.72 1012.00 1012.32 1012.68 1013.00 1013.20 1013.36 1013.52 1013.64 1013.76 1013.88 1014.00 1014.20 1014.28 1014.36 1014.52 1014.64 1014.80 1015.04 1015.20 1015.36 1015.56 1015.80 1016.00 1016.16 1016.32 1016.52 1016.60 1016.64 1016.64 1016.76 1016.92 1017.12 1017.20 1017.16 1017.08 1017.08 1017.16 1017.32 1017.44 1017.60 1017.64
1003.08 1002.40 1001.88 1001.92 1002.24 1002.68 1003.12 1003.64 1004.08 1004.60 1005.08 1005.52 1005.92 1006.32 1006.68 1007.08 1007.48 1007.96 1008.40 1008.80 1009.08 1009.52 1009.92 1010.40 1010.88 1011.20 1011.48 1011.80 1012.08 1012.48 1012.84 1013.20 1013.36 1013.52 1013.68 1013.84 1013.96 1014.08 1014.24 1014.40 1014.52 1014.64 1014.72 1014.84 1015.04 1015.20 1015.40 1015.56 1015.80 1016.00 1016.24 1016.40 1016.56 1016.72 1016.80 1016.84 1016.84 1016.96 1017.20 1017.36 1017.20 1016.92 1016.80 1016.96 1017.20 1017.40 1017.56 1017.72 1017.80
1003.64 1002.96 1002.32 1002.12 1002.32 1002.64 1003.00 1003.44 1003.92 1004.44 1004.96 1005.52 1006.00 1006.36 1006.76 1007.12 1007.52 1007.92 1008.36 1008.72 1009.16 1009.56 1009.96 1010.40 1010.80 1011.20 1011.52 1011.84 1012.24 1012.64 1012.92 1013.24 1013.48 1013.64 1013.84 1014.00 1014.12 1014.28 1014.40 1014.60 1014.76 1014.92 1015.00 1015.08 1015.24 1015.44 1015.64 1015.80 1016.08 1016.32 1016.52 1016.68 1016.80 1016.92 1017.04 1017.08 1017.16 1017.28 1017.36 1017.16 1016.80 1016.60 1016.76 1017.12 1017.40 1017.60 1017.76 1017.92 1018.00
1003.84 1003.32 1002.76 1002.48 1002.48 1002.68 1002.96 1003.36 1003.80 1004.28 1004.80 1005.36 1005.92 1006.36 1006.80 1007.20 1007.52 1007.92 1008.36 1008.76 1009.12 1009.52 1009.92 1010.32 1010.68 1011.08 1011.48 1011.88 1012.36 1012.80 1013.08 1013.36 1013.56 1013.80 1014.00 1014.24 1014.36 1014.44 1014.56 1014.80 1015.04 1015.20 1015.36 1015.40 1015.48 1015.64 1015.80 1016.08 1016.36 1016.60 1016.80 1017.00 1017.16 1017.24 1017.32 1017.36 1017.36 1017.36 1017.08 1016.64 1016.40 1016.60 1017.00 1017.40 1017.68 1017.84 1017.96 1018.08 1018.20
1003.92 1003.60 1003.24 1002.96 1002.80 1002.92 1003.24 1003.52 1003.80 1004.20 1004.64 1005.16 1005.72 1006.28 1006.76 1007.12 1007.52 1007.92 1008.28 1008.68 1009.12 1009.52 1009.92 1010.32 1010.64 1011.04 1011.48 1011.96 1012.48 1012.84 1013.16 1013.44 1013.64 1013.92 1014.16 1014.36 1014.52 1014.64 1014.76 1014.92 1015.20 1015.48 1015.64 1015.76 1015.80 1015.84 1016.04 1016.28 1016.64 1016.92 1017.08 1017.20 1017.36 1017.48 1017.52 1017.44 1017.32 1017.00 1016.60 1016.36 1016.60 1016.96 1017.40 1017.76 1017.96 1018.08 1018.20 1018.28 1018.36
1004.12 1003.96 1003.80 1003.52 1003.20 1003.24 1003.56 1003.80 1004.00 1004.24 1004.64 1005.08 1005.64 1006.12 1006.60 1007.00 1007.40 1007.80 1008.20 1008.64 1009.08 1009.56 1010.00 1010.36 1010.64 1010.96 1011.44 1012.00 1012.52 1012.92 1013.24 1013.52 1013.80 1014.04 1014.32 1014.60 1014.80 1014.88 1014.96 1015.20 1015.48 1015.72 1015.92 1016.08 1016.08 1016.12 1016.24 1016.52 1016.80 1017.04 1017.20 1017.32 1017.44 1017.52 1017.48 1017.32 1017.00 1016.60 1016.40 1016.60 1017.04 1017.48 1017.80 1018.08 1018.24 1018.32 1018.36 1018.44 1018.48
1004.40 1004.24 1004.12 1003.96 1003.76 1003.64 1003.76 1004.00 1004.20 1004.40 1004.76 1005.16 1005.60 1006.08 1006.52 1006.92 1007.32 1007.72 1008.16 1008.64 1009.08 1009.52 1009.92 1010.28 1010.60 1010.92 1011.36 1011.92 1012.52 1013.00 1013.36 1013.64 1013.92 1014.24 1014.52 1014.80 1014.96 1015.12 1015.28 1015.52 1015.72 1015.96 1016.16 1016.28 1016.32 1016.40 1016.52 1016.72 1016.92 1017.12 1017.24 1017.36 1017.40 1017.40 1017.32 1017.08 1016.64 1016.48 1016.64 1017.08 1017.52 1017.92 1018.20 1018.36 1018.48 1018.52 1018.60 1018.64 1018.64
1004.64 1004.56 1004.52 1004.52 1004.48 1004.36 1004.28 1004.28 1004.36 1004.52 1004.84 1005.28 1005.64 1006.08 1006.48 1006.84 1007.24 1007.64 1008.16 1008.64 1009.08 1009.44 1009.84 1010.32 1010.64 1011.00 1011.40 1011.96 1012.56 1013.08 1013.48 1013.80 1014.08 1014.40 1014.72 1014.92 1015.12 1015.32 1015.52 1015.76 1015.96 1016.16 1016.32 1016.48 1016.56 1016.64 1016.76 1016.92 1017.08 1017.20 1017.20 1017.20 1017.24 1017.24 1017.04 1016.68 1016.48 1016.64 1017.12 1017.60 1017.96 1018.24 1018.40 1018.56 1018.64 1018.76 1018.80 1018.80 1018.80
1004.64 1004.80 1004.92 1005.08 1005.20 1005.16 1005.04 1004.92 1004.80 1004.80 1005.00 1005.40 1005.84 1006.24 1006.56 1006.92 1007.20 1007.64 1008.12 1008.64 1009.08 1009.48 1009.92 1010.40 1010.76 1011.08 1011.52 1012.08 1012.68 1013.20 1013.60 1013.92 1014.28 1014.60 1014.84 1015.08 1015.28 1015.52 1015.72 1015.92 1016.12 1016.32 1016.48 1016.64 1016.76 1016.80 1016.92 1017.00 1017.08 1017.12 1017.16 1017.16 1017.12 1016.92 1016.64 1016.44 1016.72 1017.20 1017.68 1018.04 1018.28 1018.48 1018.60 1018.72 1018.80 1018.92 1018.92 1018.96 1018.92
1004.32 1004.80 1005.20 1005.52 1005.76 1005.80 1005.72 1005.68 1005.68 1005.56 1005.52 1005.68 1006.04 1006.40 1006.76 1007.08 1007.36 1007.76 1008.20 1008.64 1009.16 1009.64 1010.08 1010.44 1010.76 1011.16 1011.64 1012.24 1012.80 1013.32 1013.68 1014.08 1014.40 1014.68 1014.96 1015.20 1015.44 1015.64 1015.88 1016.08 1016.28 1016.48 1016.64 1016.80 1016.84 1016.88 1016.92 1017.00 1017.08 1017.08 1017.12 1017.00 1016.76 1016.52 1016.52 1016.80 1017.24 1017.72 1018.08 1018.36 1018.52 1018.64 1018.80 1018.88 1018.92 1019.00 1019.08 1019.08 1019.00
1004.08 1004.72 1005.36 1005.92 1006.20 1006.24 1006.28 1006.40 1006.64 1006.64 1006.52 1006.28 1006.36 1006.64 1007.04 1007.36 1007.64 1008.04 1008.40 1008.80 1009.28 1009.80 1010.24 1010.56 1010.88 1011.28 1011.84 1012.40 1012.96 1013.44 1013.84 1014.24 1014.56 1014.84 1015.08 1015.36 1015.56 1015.80 1016.00 1016.24 1016.44 1016.64 1016.76 1016.80 1016.84 1016.88 1016.92 1016.96 1017.04 1017.04 1016.88 1016.60 1016.40 1016.52 1016.92 1017.40 1017.80 1018.08 1018.36 1018.60 1018.72 1018.84 1018.96 1019.04 1019.08 1019.08 1019.12 1019.12 1019.04
1003.96 1004.68 1005.52 1006.20 1006.48 1006.64 1006.84 1007.12 1007.44 1007.64 1007.60 1007.36 1007.16 1007.20 1007.52 1007.92 1008.16 1008.40 1008.68 1009.04 1009.48 1009.96 1010.48 1010.84 1011.12 1011.52 1012.04 1012.60 1013.12 1013.60 1014.04 1014.40 1014.72 1015.00 1015.28 1015.52 1015.76 1015.96 1016.20 1016.36 1016.52 1016.64 1016.76 1016.80 1016.80 1016.80 1016.92 1016.96 1016.92 1016.68 1016.40 1016.32 1016.60 1017.08 1017.56 1017.92 1018.20 1018.40 1018.60 1018.76 1018.88 1018.96 1019.08 1019.12 1019.16 1019.20 1019.20 1019.20 1019.08
1004.04 1004.64 1005.40 1006.20 1006.64 1006.96 1007.32 1007.68 1008.08 1008.36 1008.48 1008.48 1008.28 1008.20 1008.32 1008.60 1008.84 1009.04 1009.20 1009.44 1009.80 1010.24 1010.68 1011.12 1011.52 1011.92 1012.36 1012.88 1013.36 1013.84 1014.24 1014.60 1014.92 1015.20 1015.48 1015.68 1015.92 1016.08 1016.28 1016.40 1016.52 1016.60 1016.68 1016.76 1016.80 1016.84 1016.92 1016.80 1016.52 1016.24 1016.28 1016.76 1017.28 1017.72 1018.04 1018.24 1018.44 1018.64 1018.76 1018.88 1019.00 1019.08 1019.16 1019.20 1019.24 1019.24 1019.20 1019.20 1019.16
1004.28 1004.76 1005.36 1006.08 1006.64 1007.12 1007.60 1008.08 1008.48 1008.76 1008.96 1009.16 1009.16 1009.04 1009.08 1009.28 1009.60 1009.76 1009.88 1010.00 1010.24 1010.52 1010.92 1011.36 1011.92 1012.44 1012.84 1013.24 1013.72 1014.16 1014.52 1014.88 1015.16 1015.40 1015.64 1015.80 1015.96 1016.12 1016.28 1016.40 1016.52 1016.56 1016.64 1016.76 1016.80 1016.80 1016.60 1016.28 1016.12 1016.32 1016.80 1017.36 1017.84 1018.12 1018.32 1018.48 1018.64 1018.76 1018.88 1018.96 1019.04 1019.12 1019.20 1019.20 1019.24 1019.24 1019.20 1019.20 1019.12
1004.64 1005.04 1005.52 1006.16 1006.68 1007.24 1007.80 1008.28 1008.64 1008.92 1009.20 1009.52 1009.60 1009.56 1009.64 1009.96 1010.28 1010.44 1010.52 1010.52 1010.72 1010.96 1011.36 1011.80 1012.32 1012.88 1013.36 1013.76 1014.12 1014.48 1014.80 1015.12 1015.36 1015.52 1015.68 1015.84 1016.00 1016.12 1016.24 1016.36 1016.44 1016.56 1016.68 1016.72 1016.56 1016.28 1016.08 1016.04 1016.40 1016.92 1017.48 1017.88 1018.16 1018.36 1018.52 1018.64 1018.80 1018.92 1018.96 1019.08 1019.08 1019.12 1019.20 1019.24 1019.28 1019.24 1019.20 1019.16 1019.08
1005.04 1005.40 1005.84 1006.40 1006.92 1007.48 1008.08 1008.60 1008.92 1009.12 1009.36 1009.64 1009.80 1010.00 1010.24 1010.56 1010.88 1011.00 1011.04 1011.00 1011.16 1011.44 1011.84 1012.32 1012.80 1013.28 1013.76 1014.20 1014.52 1014.76 1015.00 1015.24 1015.44 1015.60 1015.76 1015.84 1015.96 1016.08 1016.24 1016.36 1016.52 1016.52 1016.44 1016.20 1015.92 1015.92 1016.20 1016.64 1017.20 1017.60 1017.92 1018.20 1018.40 1018.56 1018.76 1018.88 1019.00 1019.08 1019.16 1019.20 1019.24 1019.24 1019.32 1019.36 1019.36 1019.36 1019.28 1019.20 1019.16
1005.40 1005.76 1006.16 1006.64 1007.16 1007.80 1008.40 1008.96 1009.24 1009.36 1009.52 1009.80 1010.08 1010.36 1010.68 1011.00 1011.28 1011.44 1011.52 1011.56 1011.68 1011.96 1012.36 1012.84 1013.28 1013.64 1014.04 1014.36 1014.68 1014.92 1015.12 1015.32 1015.52 1015.64 1015.76 1015.84 1015.96 1016.08 1016.24 1016.36 1016.24 1016.04 1015.76 1015.64 1015.84 1016.32 1016.92 1017.40 1017.80 1018.04 1018.24 1018.48 1018.64 1018.80 1018.92 1019.08 1019.16 1019.24 1019.32 1019.36 1019.40 1019.40 1019.44 1019.44 1019.44 1019.36 1019.36 1019.36 1019.28
1005.72 1006.08 1006.44 1006.92 1007.40 1008.00 1008.64 1009.20 1009.52 1009.68 1009.80 1010.00 1010.32 1010.64 1011.00 1011.32 1011.52 1011.80 1012.04 1012.20 1012.36 1012.52 1012.80 1013.20 1013.64 1013.96 1014.24 1014.52 1014.80 1015.04 1015.20 1015.36 1015.52 1015.64 1015.80 1015.96 1016.08 1016.12 1016.08 1015.84 1015.52 1015.36 1015.52 1015.92 1016.52 1017.08 1017.52 1017.88 1018.12 1018.32 1018.52 1018.64 1018.80 1018.92 1019.00 1019.08 1019.20 1019.28 1019.36 1019.40 1019.48 1019.48 1019.48 1019.44 1019.40 1019.40 1019.36 1019.36 1019.32
1005.92 1006.28 1006.72 1007.20 1007.64 1008.20 1008.80 1009.36 1009.72 1009.96 1010.16 1010.36 1010.64 1010.92 1011.28 1011.64 1011.88 1012.16 1012.48 1012.72 1012.92 1013.04 1013.20 1013.52 1013.84 1014.16 1014.44 1014.64 1014.92 1015.12 1015.28 1015.40 1015.56 1015.80 1015.96 1016.04 1015.92 1015.68 1015.36 1015.16 1015.20 1015.60 1016.16 1016.80 1017.32 1017.68 1018.00 1018.24 1018.36 1018.52 1018.64 1018.76 1018.84 1018.92 1019.04 1019.16 1019.24 1019.36 1019.40 1019.48 1019.48 1019.48 1019.48 1019.44 1019.44 1019.40 1019.36 1019.32 1019.28
1006.04 1006.52 1007.04 1007.52 1007.96 1008.44 1008.96 1009.52 1009.92 1010.24 1010.52 1010.76 1010.92 1011.20 1011.52 1011.92 1012.24 1012.60 1012.84 1013.08 1013.32 1013.48 1013.64 1013.92 1014.12 1014.36 1014.60 1014.80 1014.92 1015.08 1015.28 1015.48 1015.72 1015.88 1015.84 1015.60 1015.20 1014.96 1014.96 1015.28 1015.84 1016.48 1017.08 1017.52 1017.80 1018.08 1018.32 1018.48 1018.60 1018.68 1018.80 1018.84 1018.92 1019.04 1019.16 1019.24 1019.36 1019.40 1019.48 1019.48 1019.48 1019.48 1019.44 1019.44 1019.40 1019.36 1019.36 1019.32 1019.24
1006.24 1006.80 1007.36 1007.92 1008.36 1008.80 1009.24 1009.80 1010.16 1010.52 1010.80 1011.16 1011.36 1011.52 1011.80 1012.16 1012.56 1012.92 1013.20 1013.40 1013.60 1013.80 1014.04 1014.24 1014.44 1014.52 1014.64 1014.76 1014.88 1015.08 1015.36 1015.60 1015.72 1015.52 1015.16 1014.80 1014.76 1015.04 1015.52 1016.16 1016.76 1017.28 1017.68 1017.96 1018.20 1018.36 1018.48 1018.64 1018.72 1018.80 1018.88 1018.96 1019.08 1019.16 1019.24 1019.36 1019.48 1019.52 1019.52 1019.52 1019.52 1019.48 1019.44 1019.40 1019.36 1019.36 1019.28 1019.28 1019.20
1006.36 1006.96 1007.64 1008.24 1008.72 1009.16 1009.60 1010.08 1010.40 1010.76 1011.12 1011.48 1011.64 1011.80 1012.04 1012.36 1012.80 1013.20 1013.48 1013.68 1013.88 1014.08 1014.32 1014.52 1014.64 1014.64 1014.68 1014.84 1015.00 1015.20 1015.36 1015.28 1015.08 1014.76 1014.56 1014.68 1015.16 1015.80 1016.40 1016.92 1017.36 1017.72 1018.00 1018.24 1018.40 1018.52 1018.64 1018.72 1018.80 1018.92 1019.00 1019.08 1019.20 1019.28 1019.36 1019.44 1019.52 1019.56 1019.60 1019.56 1019.52 1019.48 1019.40 1019.36 1019.36 1019.28 1019.24 1019.20 1019.20
1006.52 1007.12 1007.80 1008.40 1009.00 1009.52 1009.92 1010.36 1010.68 1011.04 1011.36 1011.60 1011.76 1011.92 1012.24 1012.60 1013.00 1013.36 1013.64 1013.84 1014.08 1014.28 1014.44 1014.56 1014.64 1014.72 1014.92 1015.16 1015.24 1015.08 1014.76 1014.40 1014.36 1014.52 1014.84 1015.36 1016.00 1016.60 1017.08 1017.44 1017.76 1018.00 1018.24 1018.40 1018.52 1018.64 1018.76 1018.84 1018.96 1019.08 1019.16 1019.24 1019.36 1019.44 1019.52 1019.52 1019.56 1019.60 1019.56 1019.52 1019.48 1019.44 1019.36 1019.32 1019.32 1019.28 1019.24 1019.20 1019.20
1006.80 1007.32 1007.92 1008.56 1009.20 1009.80 1010.32 1010.64 1010.96 1011.24 1011.52 1011.64 1011.80 1012.04 1012.36 1012.76 1013.12 1013.44 1013.72 1013.96 1014.20 1014.36 1014.48 1014.56 1014.72 1014.96 1015.20 1015.20 1014.92 1014.48 1014.16 1014.16 1014.52 1015.04 1015.64 1016.28 1016.80 1017.20 1017.52 1017.80 1018.04 1018.24 1018.36 1018.52 1018.60 1018.72 1018.84 1018.96 1019.08 1019.20 1019.32 1019.40 1019.52 1019.52 1019.56 1019.64 1019.60 1019.56 1019.52 1019.44 1019.40 1019.36 1019.36 1019.32 1019.28 1019.20 1019.20 1019.20 1019.12
1007.12 1007.64 1008.24 1008.84 1009.48 1010.12 1010.64 1011.00 1011.24 1011.44 1011.56 1011.72 1011.88 1012.12 1012.48 1012.84 1013.20 1013.52 1013.76 1014.04 1014.28 1014.44 1014.56 1014.72 1014.88 1015.04 1014.96 1014.64 1014.24 1014.12 1014.36 1014.80 1015.32 1015.88 1016.40 1016.92 1017.28 1017.56 1017.80 1018.00 1018.24 1018.36 1018.52 1018.64 1018.68 1018.80 1018.92 1019.04 1019.20 1019.36 1019.44 1019.52 1019.64 1019.68 1019.68 1019.64 1019.64 1019.56 1019.52 1019.44 1019.40 1019.36 1019.36 1019.28 1019.24 1019.20 1019.12 1019.08 1019.04
1007.48 1008.00 1008.60 1009.20 1009.80 1010.44 1010.96 1011.28 1011.48 1011.60 1011.68 1011.80 1011.92 1012.24 1012.60 1012.92 1013.24 1013.52 1013.84 1014.16 1014.36 1014.52 1014.64 1014.72 1014.76 1014.64 1014.40 1014.24 1014.28 1014.64 1015.12 1015.72 1016.20 1016.60 1016.96 1017.28 1017.60 1017.80 1018.04 1018.24 1018.36 1018.52 1018.64 1018.72 1018.80 1018.92 1019.08 1019.20 1019.28 1019.36 1019.48 1019.56 1019.64 1019.72 1019.68 1019.64 1019.64 1019.60 1019.56 1019.52 1019.48 1019.40 1019.36 1019.28 1019.24 1019.20 1019.08 1019.04 1018.96
1007.80 1008.36 1008.92 1009.60 1010.24 1010.84 1011.32 1011.56 1011.68 1011.80 1011.84 1011.92 1012.08 1012.36 1012.68 1013.04 1013.36 1013.68 1013.96 1014.24 1014.36 1014.40 1014.44 1014.48 1014.40 1014.32 1014.32 1014.52 1014.92 1015.44 1015.92 1016.36 1016.76 1017.08 1017.32 1017.56 1017.76 1017.96 1018.20 1018.36 1018.52 1018.64 1018.72 1018.84 1018.96 1019.08 1019.20 1019.32 1019.36 1019.44 1019.52 1019.60 1019.64 1019.68 1019.68 1019.64 1019.64 1019.60 1019.56 1019.52 1019.48 1019.36 1019.32 1019.24 1019.20 1019.16 1019.12 1019.08 1019.00
1008.08 1008.64 1009.28 1009.96 1010.64 1011.16 1011.52 1011.68 1011.80 1011.88 1011.92 1012.04 1012.28 1012.56 1012.88 1013.20 1013.52 1013.80 1014.04 1014.16 1014.16 1014.12 1014.16 1014.24 1014.32 1014.44 1014.72 1015.20 1015.68 1016.12 1016.52 1016.84 1017.12 1017.36 1017.52 1017.76 1017.92 1018.16 1018.36 1018.52 1018.64 1018.76 1018.84 1018.92 1019.08 1019.20 1019.32 1019.36 1019.44 1019.48 1019.52 1019.56 1019.68 1019.72 1019.68 1019.64 1019.64 1019.60 1019.52 1019.52 1019.44 1019.36 1019.28 1019.20 1019.20 1019.20 1019.16 1019.08 1019.04
1008.44 1009.04 1009.68 1010.32 1010.88 1011.32 1011.56 1011.72 1011.80 1011.92 1012.08 1012.28 1012.52 1012.80 1013.08 1013.36 1013.64 1013.84 1013.96 1014.00 1013.96 1014.00 1014.12 1014.28 1014.52 1014.92 1015.36 1015.84 1016.24 1016.60 1016.92 1017.16 1017.36 1017.56 1017.76 1017.92 1018.12 1018.32 1018.52 1018.64 1018.80 1018.92 1019.00 1019.08 1019.20 1019.32 1019.36 1019.36 1019.40 1019.44 1019.52 1019.56 1019.64 1019.72 1019.64 1019.60 1019.56 1019.56 1019.52 1019.48 1019.40 1019.36 1019.32 1019.28 1019.24 1019.20 1019.16 1019.08 1018.92
1008.88 1009.48 1010.04 1010.52 1010.92 1011.24 1011.48 1011.64 1011.84 1012.04 1012.24 1012.52 1012.68 1012.92 1013.12 1013.36 1013.64 1013.80 1013.84 1013.84 1013.92 1014.08 1014.32 1014.56 1014.96 1015.40 1015.88 1016.28 1016.60 1016.88 1017.16 1017.40 1017.64 1017.80 1017.96 1018.16 1018.36 1018.52 1018.64 1018.84 1018.96 1019.08 1019.16 1019.20 1019.32 1019.36 1019.40 1019.40 1019.44 1019.48 1019.52 1019.56 1019.68 1019.68 1019.64 1019.56 1019.52 1019.52 1019.44 1019.36 1019.32 1019.24 1019.20 1019.20 1019.20 1019.12 1019.08 1019.04 1018.96
1009.28 1009.76 1010.12 1010.48 1010.80 1011.12 1011.44 1011.72 1011.96 1012.24 1012.44 1012.64 1012.80 1012.92 1013.08 1013.32 1013.52 1013.68 1013.80 1013.88 1014.04 1014.32 1014.64 1015.08 1015.48 1015.92 1016.32 1016.64 1016.92 1017.16 1017.40 1017.64 1017.84 1018.00 1018.20 1018.36 1018.52 1018.68 1018.88 1019.04 1019.16 1019.24 1019.32 1019.36 1019.36 1019.40 1019.44 1019.44 1019.48 1019.52 1019.64 1019.64 1019.68 1019.64 1019.60 1019.56 1019.52 1019.52 1019.40 1019.36 1019.32 1019.28 1019.28 1019.28 1019.28 1019.24 1019.20 1019.12 1019.08
1009.48 1009.76 1010.04 1010.36 1010.80 1011.20 1011.60 1011.92 1012.20 1012.36 1012.56 1012.68 1012.80 1012.92 1013.08 1013.28 1013.52 1013.72 1013.92 1014.08 1014.36 1014.68 1015.12 1015.60 1015.92 1016.32 1016.64 1016.92 1017.16 1017.40 1017.64 1017.84 1018.04 1018.20 1018.32 1018.48 1018.64 1018.84 1019.04 1019.20 1019.32 1019.36 1019.44 1019.44 1019.44 1019.44 1019.48 1019.52 1019.56 1019.60 1019.64 1019.64 1019.64 1019.64 1019.64 1019.60 1019.52 1019.48 1019.44 1019.44 1019.40 1019.40 1019.40 1019.40 1019.36 1019.32 1019.28 1019.20 1019.16
1009.36 1009.64 1009.92 1010.40 1010.92 1011.40 1011.80 1012.08 1012.36 1012.52 1012.64 1012.72 1012.84 1012.92 1013.08 1013.24 1013.52 1013.80 1014.12 1014.52 1014.84 1015.20 1015.64 1016.04 1016.36 1016.64 1016.92 1017.16 1017.36 1017.60 1017.80 1018.00 1018.16 1018.36 1018.52 1018.68 1018.88 1019.04 1019.20 1019.32 1019.44 1019.48 1019.48 1019.52 1019.52 1019.52 1019.52 1019.56 1019.60 1019.64 1019.64 1019.60 1019.56 1019.60 1019.64 1019.64 1019.60 1019.56 1019.56 1019.52 1019.52 1019.52 1019.48 1019.44 1019.36 1019.32 1019.28 1019.24 1019.20
1009.20 1009.60 1010.08 1010.64 1011.16 1011.52 1011.88 1012.12 1012.36 1012.52 1012.64 1012.72 1012.92 1013.04 1013.20 1013.40 1013.72 1014.12 1014.52 1014.92 1015.28 1015.64 1016.04 1016.40 1016.68 1016.92 1017.20 1017.48 1017.64 1017.80 1017.92 1018.12 1018.32 1018.52 1018.72 1018.92 1019.08 1019.24 1019.36 1019.44 1019.52 1019.56 1019.52 1019.56 1019.56 1019.60 1019.60 1019.64 1019.64 1019.64 1019.64 1019.60 1019.56 1019.60 1019.64 1019.64 1019.64 1019.64 1019.64 1019.60 1019.56 1019.52 1019.52 1019.44 1019.40 1019.36 1019.32 1019.32 1019.36
1009.24 1009.72 1010.24 1010.80 1011.20 1011.56 1011.84 1012.12 1012.32 1012.48 1012.64 1012.80 1013.00 1013.24 1013.52 1013.84 1014.24 1014.64 1015.00 1015.32 1015.64 1016.00 1016.36 1016.68 1016.96 1017.20 1017.48 1017.72 1017.88 1018.04 1018.20 1018.36 1018.56 1018.80 1019.00 1019.16 1019.28 1019.36 1019.52 1019.64 1019.64 1019.64 1019.64 1019.60 1019.60 1019.64 1019.64 1019.64 1019.64 1019.64 1019.64 1019.64 1019.64 1019.64 1019.68 1019.68 1019.72 1019.68 1019.68 1019.68 1019.64 1019.56 1019.52 1019.48 1019.44 1019.40 1019.36 1019.40 1019.40
1009.44 1009.84 1010.28 1010.76 1011.12 1011.48 1011.80 1012.08 1012.32 1012.56 1012.80 1013.08 1013.36 1013.64 1013.96 1014.36 1014.76 1015.16 1015.44 1015.68 1015.96 1016.28 1016.64 1016.92 1017.20 1017.52 1017.72 1017.92 1018.12 1018.32 1018.52 1018.68 1018.84 1019.04 1019.20 1019.36 1019.44 1019.52 1019.64 1019.80 1019.80 1019.80 1019.72 1019.64 1019.64 1019.64 1019.64 1019.64 1019.72 1019.72 1019.72 1019.72 1019.72 1019.76 1019.80 1019.80 1019.80 1019.80 1019.76 1019.72 1019.68 1019.64 1019.56 1019.52 1019.52 1019.48 1019.44 1019.44 1019.44
1009.64 1009.92 1010.28 1010.68 1011.08 1011.48 1011.84 1012.16 1012.44 1012.76 1013.08 1013.48 1013.80 1014.16 1014.44 1014.76 1015.16 1015.52 1015.84 1016.04 1016.24 1016.52 1016.84 1017.16 1017.48 1017.76 1017.96 1018.16 1018.40 1018.64 1018.80 1018.96 1019.12 1019.24 1019.36 1019.48 1019.60 1019.72 1019.80 1019.88 1019.92 1019.88 1019.80 1019.72 1019.68 1019.68 1019.68 1019.72 1019.76 1019.80 1019.80 1019.80 1019.80 1019.84 1019.88 1019.88 1019.84 1019.80 1019.80 1019.72 1019.72 1019.68 1019.64 1019.64 1019.60 1019.56 1019.52 1019.52 1019.48
1009.80 1010.08 1010.36 1010.72 1011.12 1011.56 1012.00 1012.36 1012.72 1013.08 1013.44 1013.88 1014.24 1014.60 1014.84 1015.16 1015.52 1015.84 1016.12 1016.32 1016.52 1016.76 1017.04 1017.36 1017.68 1017.96 1018.20 1018.40 1018.60 1018.80 1019.00 1019.16 1019.28 1019.40 1019.52 1019.64 1019.80 1019.88 1019.92 1019.96 1019.96 1019.92 1019.84 1019.76 1019.76 1019.76 1019.80 1019.80 1019.84 1019.88 1019.92 1019.92 1019.92 1019.92 1019.88 1019.88 1019.84 1019.80 1019.80 1019.80 1019.80 1019.80 1019.76 1019.76 1019.72 1019.68 1019.68 1019.64 1019.52
1010.08 1010.36 1010.64 1010.96 1011.36 1011.80 1012.20 1012.64 1013.04 1013.40 1013.80 1014.16 1014.56 1014.92 1015.20 1015.44 1015.76 1016.04 1016.32 1016.60 1016.80 1017.04 1017.32 1017.60 1017.92 1018.20 1018.44 1018.60 1018.80 1018.92 1019.12 1019.32 1019.48 1019.60 1019.72 1019.80 1019.92 1020.00 1020.04 1020.08 1020.08 1020.04 1019.92 1019.84 1019.80 1019.84 1019.88 1019.88 1019.92 1019.92 1019.92 1019.92 1019.92 1019.88 1019.84 1019.80 1019.80 1019.80 1019.84 1019.84 1019.88 1019.88 1019.88 1019.88 1019.84 1019.80 1019.80 1019.72 1019.64
1010.40 1010.68 1011.00 1011.36 1011.68 1012.04 1012.40 1012.84 1013.32 1013.76 1014.16 1014.52 1014.84 1015.12 1015.40 1015.64 1015.92 1016.20 1016.52 1016.80 1017.08 1017.36 1017.64 1017.92 1018.24 1018.48 1018.64 1018.80 1018.96 1019.12 1019.32 1019.52 1019.68 1019.80 1019.92 1020.00 1020.08 1020.16 1020.24 1020.24 1020.20 1020.16 1020.08 1019.96 1019.92 1019.92 1019.92 1019.92 1019.88 1019.88 1019.88 1019.92 1019.88 1019.80 1019.76 1019.76 1019.80 1019.84 1019.92 1019.96 1019.92 1019.92 1019.96 1019.96 1019.92 1019.88 1019.84 1019.80 1019.76
Wind_Speed
10 10 11 11 11 10 9 8 9 9 10 11 11 11 11 11 11 10 9 8 7 7 8 7 8 8 8 10 11 11 10 10 10 9 9 9 9 9 9 8 8 8 8 8 8 7 7 7 6 5 4 4 4 4 3 2 3 4 4 4 3 3 3 5 4 4 4 3 2
9 10 11 11 11 10 10 9 9 9 9 10 10 11 11 11 11 11 10 8 8 8 8 8 8 9 10 12 12 12 11 10 10 9 9 9 9 9 9 8 8 8 8 8 8 7 6 6 6 5 4 4 4 4 3 2 3 4 5 4 3 2 3 5 5 4 4 3 2
8 8 10 12 12 12 11 11 12 12 12 11 10 11 11 11 11 10 10 9 10 9 9 8 9 10 12 13 12 11 11 10 10 9 9 9 9 9 9 8 9 8 8 8 8 7 6 6 6 5 4 4 4 4 3 2 3 4 4 3 2 3 4 5 5 4 4 3 3
8 8 10 13 15 15 14 13 15 16 15 13 12 11 11 10 10 10 11 12 12 11 10 9 10 11 12 13 13 12 10 10 10 10 10 9 10 10 10 9 9 9 9 8 8 8 8 7 6 5 4 4 4 3 2 2 2 3 2 2 3 4 6 5 5 4 4 3 3
8 8 9 12 16 16 16 16 18 17 16 13 12 11 10 10 10 11 11 12 11 11 11 12 11 12 13 14 14 13 11 10 10 10 10 10 10 10 11 11 10 9 8 8 8 8 8 7 5 4 4 4 4 2 1 2 2 2 2 3 5 6 6 5 4 4 3 3 3
6 7 8 11 14 15 15 15 18 18 16 14 14 13 12 10 11 11 12 12 13 14 14 13 13 13 15 15 14 13 12 11 10 10 10 10 10 10 11 11 10 9 8 7 7 8 8 7 5 4 3 3 3 2 1 1 2 2 4 6 7 6 5 5 4 3 3 4 4
6 6 8 10 13 15 15 15 16 17 16 16 17 17 15 14 14 15 15 14 14 14 13 12 13 15 16 15 14 12 11 11 11 11 11 10 10 10 11 11 10 9 8 7 7 7 7 6 5 4 3 3 3 2 2 2 3 5 7 8 7 6 5 4 3 3 4 5 5
5 6 9 10 12 15 16 16 16 16 16 15 17 19 19 18 19 18 17 15 14 13 13 12 14 16 17 16 14 13 12 12 11 11 11 10 11 11 11 10 9 9 8 7 7 7 6 5 4 3 3 3 3 3 3 5 7 9 10 9 6 5 4 3 3 3 4 5 5
6 8 9 10 11 13 15 16 16 17 17 17 19 20 21 21 21 20 18 15 14 14 14 13 15 17 17 17 15 13 12 12 11 11 10 10 11 10 10 9 9 8 7 7 7 7 6 5 4 3 3 3 3 3 5 8 11 12 11 8 6 5 4 3 4 4 4 5 5
11 10 11 11 11 11 12 14 15 17 19 20 21 21 21 20 20 19 17 14 14 14 14 14 16 17 18 17 15 13 12 11 11 11 11 10 10 10 9 8 8 8 7 6 6 6 6 5 5 5 4 4 5 6 8 11 13 12 9 6 5 5 5 4 4 3 3 3 3
15 14 12 11 11 11 12 13 13 15 17 20 21 20 20 19 19 17 16 15 16 16 15 15 17 17 17 16 14 13 12 11 10 10 11 10 10 10 9 9 8 8 7 6 5 5 5 5 6 6 6 5 6 9 11 12 11 10 8 5 5 5 5 4 3 3 2 2 2
18 17 15 13 12 12 13 13 12 12 14 17 19 19 18 17 17 17 17 18 18 16 15 15 17 17 16 14 13 13 12 11 11 11 11 11 11 10 10 9 9 8 7 6 5 5 5 6 6 7 7 8 8 9 10 11 9 8 6 5 4 4 4 3 3 2 2 2 2
20 19 17 15 14 14 14 13 11 11 12 14 15 16 15 15 16 17 18 18 17 15 14 15 16 16 15 14 13 12 11 11 11 11 10 10 10 10 10 9 9 8 8 6 6 6 6 6 7 8 10 11 10 9 8 8 7 6 4 4 3 3 2 3 3 3 2 2 2
21 21 20 18 16 15 14 13 11 11 12 13 13 14 14 15 15 15 15 16 16 15 15 14 14 14 14 14 13 12 12 11 11 11 11 10 10 10 10 9 9 8 8 7 7 7 7 7 9 11 12 12 10 8 7 6 5 4 3 2 2 2 2 3 3 3 3 3 3
21 21 21 19 18 16 15 13 11 11 12 13 12 13 13 13 13 13 13 15 15 15 14 14 13 13 14 14 13 13 12 11 11 11 11 11 10 10 10 9 9 9 8 8 8 8 9 10 12 13 12 11 9 7 6 5 5 4 3 2 2 2 2 3 3 3 3 4 3
20 21 21 20 18 17 15 13 11 12 12 12 12 13 13 12 11 12 13 14 14 14 14 15 14 13 13 12 12 12 12 11 11 11 11 11 11 10 10 10 10 9 9 9 9 10 12 14 13 12 11 9 8 7 7 6 6 5 5 4 4 4 4 4 4 4 4 4 4
20 20 20 20 19 18 17 14 12 12 13 14 13 13 13 12 10 11 11 13 13 14 15 15 13 12 12 11 11 11 11 10 10 10 10 10 11 11 10 10 10 10 10 11 13 14 15 14 12 11 10 9 8 8 7 7 6 6 5 5 5 5 5 4 4 5 5 6 6
20 20 20 21 21 20 19 16 14 14 15 15 14 14 13 12 11 11 11 13 14 15 16 15 13 12 12 11 10 9 9 10 10 10 10 10 11 11 11 10 10 11 12 14 15 15 14 12 10 9 8 7 7 6 6 5 4 4 4 4 3 3 3 3 3 4 4 4 4
20 20 21 21 22 21 20 18 16 16 16 16 15 14 14 14 13 13 13 13 14 15 15 15 13 12 12 12 11 10 9 10 10 10 10 10 10 11 11 11 13 14 16 16 15 13 12 10 9 8 7 6 6 5 5 4 4 4 3 3 3 2 2 3 3 3 2 3 2
21 21 21 21 21 21 20 18 17 16 15 15 16 16 15 15 15 14 14 13 13 14 14 14 13 13 12 12 12 11 10 9 11 11 11 10 11 12 13 15 16 17 16 14 12 11 9 8 8 7 6 6 5 5 5 4 4 3 3 2 2 2 2 2 2 3 3 3 3
21 21 21 20 20 20 19 18 17 16 16 16 17 17 16 15 15 15 14 13 13 13 13 13 13 13 13 13 12 11 10 9 10 10 11 11 13 15 16 17 16 15 13 11 10 9 8 7 7 6 6 6 5 5 4 3 3 3 2 2 2 2 2 2 2 2 3 3 3
21 21 20 20 19 19 19 18 17 17 16 16 16 16 16 16 15 14 14 13 13 13 13 13 13 13 13 13 12 12 11 10 10 10 11 14 16 17 17 15 14 12 10 9 8 8 7 7 6 6 6 5 4 4 3 2 2 2 2 2 2 2 3 2 2 2 3 3 3
21 20 19 19 19 19 19 18 17 17 17 16 16 16 16 16 15 14 14 13 13 13 13 12 12 12 12 12 12 12 12 12 12 14 15 17 17 16 14 12 11 10 9 7 7 7 6 6 6 6 5 4 3 2 2 1 1 1 1 2 2 2 3 3 3 3 3 3 3
21 20 19 17 18 18 18 17 17 17 17 16 16 16 16 16 15 14 14 13 13 13 12 11 11 12 12 12 12 13 14 16 17 18 18 17 16 14 12 10 9 8 7 6 7 6 6 5 5 4 4 3 2 2 1 1 1 1 1 2 2 2 2 3 3 3 3 3 3
21 21 20 19 19 18 17 17 17 17 17 16 17 17 16 16 15 15 14 14 13 13 13 12 12 12 11 11 12 14 16 19 19 19 17 16 14 12 10 8 8 7 6 6 9 10 8 6 5 3 2 2 1 2 2 2 2 2 2 2 2 2 3 3 3 3 3 3 3
21 21 21 20 19 18 17 16 16 16 17 17 17 17 17 16 15 15 15 14 14 13 13 13 12 11 11 12 14 16 17 17 17 16 15 14 12 11 9 7 6 5 6 8 10 10 9 8 6 4 2 1 1 1 2 2 3 3 3 3 3 3 3 3 4 4 4 4 4
21 21 21 20 19 17 16 15 16 16 16 17 17 17 16 15 15 15 15 15 14 13 13 12 12 12 12 14 17 17 16 15 15 14 14 13 12 10 9 7 5 5 6 9 10 9 8 7 5 4 2 1 1 1 1 1 2 2 2 2 3 3 3 4 4 5 5 5 5
21 21 21 20 18 17 15 15 15 16 16 16 17 17 16 16 16 15 15 14 14 13 12 11 11 11 12 13 15 16 15 14 13 12 12 12 11 10 8 6 5 6 8 10 9 8 7 5 4 4 3 2 2 1 1 1 1 1 2 2 2 3 3 4 4 4 5 5 5
21 21 21 20 18 16 16 15 15 16 16 16 16 16 16 16 15 15 14 14 13 13 12 11 10 11 12 13 14 14 14 13 12 11 11 11 11 9 8 7 6 7 8 10 8 7 6 5 4 4 4 4 2 1 1 1 2 2 2 2 2 3 3 4 4 4 4 5 5
21 20 20 19 18 17 16 16 16 16 15 15 16 16 16 16 15 14 14 14 14 13 12 11 12 13 13 13 13 12 12 12 11 11 11 11 10 9 8 7 6 7 8 9 7 6 5 5 4 5 5 4 2 1 1 2 2 2 2 2 2 3 3 4 4 4 4 4 4
20 19 19 19 18 17 17 16 16 16 15 14 15 16 16 16 15 15 14 15 14 14 14 14 15 15 14 13 12 12 12 12 11 11 11 11 10 9 8 7 6 7 7 8 7 6 5 5 5 5 5 4 1 1 1 2 2 2 2 2 2 2 3 3 3 3 4 5 5
19 19 19 19 18 18 17 16 15 15 15 16 16 16 16 16 16 15 15 15 16 16 16 15 15 15 14 13 13 13 13 12 12 11 10 10 10 9 8 7 6 6 6 7 6 6 5 5 5 5 4 3 1 1 2 1 2 2 2 2 2 3 3 3 3 3 4 5 4
19 19 20 20 19 18 17 16 15 15 15 16 16 16 17 17 17 16 16 15 15 15 15 15 14 14 14 13 13 13 13 13 12 11 11 10 10 9 7 6 5 5 6 7 6 6 5 5 5 4 3 2 1 1 1 1 1 1 1 2 2 2 2 2 2 3 3 3 3
20 20 21 20 19 18 16 15 15 15 15 16 16 17 17 18 18 17 16 14 14 14 13 13 13 12 12 12 12 12 12 11 11 11 11 10 9 8 7 5 4 5 7 7 6 6 6 6 5 4 3 1 1 1 1 1 1 1 2 2 2 2 2 2 3 3 3 4 4
21 21 21 20 19 18 17 16 15 15 16 16 17 17 17 18 17 17 15 14 14 13 13 12 12 12 12 11 11 12 12 12 12 11 10 9 8 8 7 5 4 5 7 7 6 6 6 6 5 4 3 2 2 2 2 2 2 2 2 3 3 3 3 3 3 3 4 5 6
22 22 21 20 19 18 17 16 16 16 16 17 17 17 17 17 16 15 14 14 14 13 13 12 12 12 12 12 11 11 11 12 11 11 10 9 8 7 6 5 3 4 6 7 7 7 7 7 6 5 3 2 2 2 2 2 2 2 3 3 3 4 4 3 3 4 5 6 6
21 21 21 20 19 18 17 17 17 17 17 17 17 17 17 16 15 14 13 13 13 13 13 13 13 12 12 12 11 10 10 10 10 10 9 9 8 7 5 4 3 3 4 7 8 8 8 8 7 5 4 2 2 2 2 2 2 2 3 3 3 4 4 4 4 5 5 6 5
20 21 21 20 19 18 18 17 17 18 18 17 17 16 16 16 15 13 12 12 13 13 13 13 13 12 12 12 11 11 10 10 10 9 9 9 7 6 5 3 2 3 4 7 9 9 9 8 7 6 4 2 2 2 2 2 2 2 3 3 3 4 4 4 4 4 5 6 7
20 20 20 20 20 19 18 18 18 18 18 17 16 16 15 14 13 13 12 11 12 13 13 13 13 12 11 11 11 11 11 10 10 9 9 8 7 6 5 3 3 3 4 7 9 10 9 9 8 7 5 2 2 1 1 1 2 3 3 4 4 4 4 4 4 4 4 6 9
19 19 20 20 20 19 19 19 18 17 17 16 16 15 15 14 14 13 12 12 12 13 13 13 13 12 11 11 11 11 11 10 10 9 8 8 7 7 6 4 3 3 4 7 10 10 10 10 9 8 6 3 2 1 1 2 3 4 5 4 4 4 4 4 4 4 4 5 7
18 18 19 19 19 19 20 19 18 17 16 15 15 14 14 14 14 13 13 12 12 12 12 12 12 12 11 10 10 11 11 11 10 8 7 7 7 7 6 3 3 3 4 6 10 11 11 11 10 9 7 4 2 2 2 3 4 5 5 4 4 4 4 4 4 4 4 4 4
Wind_Direction
171 152 142 140 139 137 134 132 131 132 133 135 135 134 132 130 128 128 128 127 124 121 117 114 114 113 110 103 99 96 92 90 90 91 93 95 96 95 94 93 93 93 93 91 88 85 84 82 82 81 78 78 76 72 68 68 82 83 80 79 87 94 91 83 75 70 67 66 70
183 156 139 134 132 129 127 126 125 125 127 129 131 131 132 131 131 130 130 129 126 121 118 117 118 116 111 105 101 99 97 95 94 93 91 90 90 89 89 88 87 87 87 87 85 84 83 81 81 80 78 74 75 71 65 60 79 83 83 84 97 98 85 73 64 62 61 59 50
200 164 141 134 133 132 131 130 129 128 128 127 128 130 131 131 131 131 130 127 122 118 117 120 120 116 111 107 104 103 102 102 100 97 93 90 86 85 84 83 80 79 79 82 83 84 83 80 79 78 76 75 75 75 73 69 82 90 94 104 108 89 74 66 57 54 54 51 44
211 179 149 137 137 137 136 135 133 131 130 129 128 128 128 129 129 128 126 122 119 119 121 126 124 119 113 109 106 104 103 102 100 97 94 90 86 84 81 79 76 75 75 78 81 82 81 78 76 74 74 76 76 77 82 98 105 111 116 117 86 72 65 60 52 49 50 48 45
199 180 157 142 139 137 136 134 133 132 131 130 128 128 127 128 127 125 124 122 123 124 125 127 124 118 113 109 106 104 101 98 96 94 92 88 86 84 82 78 76 74 74 76 80 83 83 80 78 77 77 78 76 79 100 141 131 126 109 76 64 61 59 55 47 45 45 44 38
192 179 161 144 136 133 131 133 133 132 131 130 129 129 129 130 129 128 127 126 124 123 121 121 119 115 112 108 106 104 101 97 95 93 91 88 85 84 82 81 78 76 74 74 79 83 85 86 85 85 87 90 87 83 94 139 116 89 70 60 54 53 53 49 44 42 41 40 35
189 170 152 140 133 131 131 132 131 130 129 128 129 130 131 131 130 128 127 125 122 121 120 120 120 118 115 111 108 105 102 99 96 94 92 90 87 85 84 84 81 79 76 75 78 81 85 89 92 94 97 100 92 74 56 64 67 62 58 55 51 50 50 44 39 39 41 39 34
166 147 135 131 128 129 130 132 131 130 129 129 130 130 130 129 128 126 125 123 122 123 123 121 120 118 115 112 109 106 103 100 97 95 94 94 91 88 86 85 83 81 79 77 80 84 87 90 94 97 100 97 87 68 55 55 58 57 55 51 48 46 45 42 39 40 41 39 32
134 125 120 118 121 125 128 130 130 129 129 128 129 129 128 128 127 125 124 123 123 122 120 117 116 113 110 108 107 105 103 101 99 98 97 96 94 92 89 87 86 83 82 79 83 87 91 93 94 95 94 90 85 71 59 56 56 56 53 49 43 37 35 38 38 40 40 39 31
126 118 112 111 115 119 122 123 124 124 125 125 126 126 126 126 125 124 123 122 119 116 115 115 113 109 106 105 104 104 103 101 100 99 98 97 95 94 93 91 89 88 87 85 87 90 92 94 92 89 86 85 79 66 58 55 56 54 52 46 39 31 25 22 25 30 33 34 27
122 115 110 109 112 113 112 111 114 118 121 123 124 124 124 123 122 121 120 117 114 112 112 113 110 107 105 104 103 103 102 101 101 100 99 97 95 94 94 93 92 92 93 93 93 93 92 91 89 85 80 75 67 60 55 53 55 54 51 45 39 30 21 7 7 12 18 18 10
117 112 108 107 108 106 104 103 105 110 115 119 120 120 118 118 118 117 115 112 110 109 109 108 107 105 104 103 103 102 101 100 101 101 100 99 98 97 96 96 96 96 95 94 94 92 90 88 86 81 72 61 57 54 52 52 53 52 48 41 37 27 12 351 346 346 352 356 350
115 111 109 107 105 103 100 99 100 102 105 108 110 109 109 109 110 110 109 108 107 105 104 102 102 102 102 102 102 101 101 101 102 102 102 102 102 101 100 99 99 97 95 92 90 89 88 87 82 73 64 56 52 51 51 52 54 52 46 35 28 14 351 328 323 326 335 342 334
113 112 111 109 106 103 99 97 97 96 96 96 97 99 99 100 101 101 101 102 103 102 101 98 95 96 97 99 100 101 102 103 104 105 105 105 105 104 102 101 100 98 95 92 89 87 85 80 71 64 60 56 52 50 49 53 55 54 49 34 15 349 325 313 313 320 326 325 317
111 111 111 110 108 105 102 100 99 97 95 93 92 92 93 93 93 94 95 98 99 99 98 95 92 92 93 96 99 102 104 106 108 108 108 107 105 104 103 102 99 98 96 95 91 84 76 68 62 60 59 58 55 51 48 48 48 47 43 31 13 356 345 338 334 331 327 320 314
110 110 110 109 108 106 104 103 103 100 98 95 92 90 89 89 90 92 94 96 96 95 94 93 93 93 94 95 100 104 107 109 110 110 109 109 107 106 104 102 100 100 98 94 85 74 66 61 59 59 59 60 59 56 52 48 46 43 39 33 28 24 21 13 3 356 350 345 343
108 108 108 108 107 105 104 104 104 102 100 97 93 91 90 91 91 91 92 95 95 95 94 95 97 99 101 102 105 108 110 111 111 111 111 111 109 108 106 105 103 100 93 83 73 66 62 60 60 60 62 63 63 62 59 55 52 48 45 39 33 30 27 23 18 13 8 6 2
107 108 107 107 105 104 104 104 103 102 101 99 96 94 94 95 95 93 92 93 97 99 100 101 103 106 109 110 110 111 112 113 113 112 112 112 111 110 109 106 99 89 78 71 67 65 65 65 65 66 66 67 67 67 65 62 58 54 47 39 30 23 20 17 16 14 10 6 360
108 107 106 106 105 104 104 104 103 102 101 100 98 97 97 98 98 97 95 95 99 103 106 108 109 111 112 114 113 113 113 113 113 113 113 115 114 110 104 94 82 74 69 67 68 69 71 72 73 72 72 71 69 66 62 57 51 46 40 33 20 11 4 359 356 351 344 336 327
108 107 106 105 104 104 104 103 103 102 101 100 100 100 99 99 100 100 101 101 103 106 109 112 113 114 115 116 116 115 114 112 114 115 117 117 108 97 86 78 72 69 68 70 73 75 76 76 75 75 73 70 66 60 54 46 40 32 24 16 5 356 348 344 338 331 323 318 312
107 106 104 104 104 103 103 103 103 103 102 102 102 102 102 102 102 103 105 106 107 108 109 112 115 117 119 119 118 117 115 115 118 119 115 104 90 80 74 71 70 71 72 75 78 79 79 77 75 73 70 67 63 58 51 42 31 19 5 352 342 333 327 321 315 310 306 304 304
107 106 104 104 104 104 104 105 105 104 104 104 105 105 105 105 105 106 107 108 108 109 110 113 116 118 119 119 119 120 122 123 120 110 97 85 77 73 71 72 74 76 77 78 79 79 78 75 71 67 65 62 57 52 46 37 23 3 345 329 320 315 309 304 297 293 290 291 294
109 107 106 105 105 105 107 108 108 108 108 108 109 108 108 108 108 109 110 110 110 111 113 114 115 115 115 117 122 125 123 116 101 88 79 74 73 73 74 76 78 79 80 80 80 78 75 70 65 60 56 54 47 39 30 20 358 327 305 299 300 302 301 297 292 288 285 284 283
111 110 109 108 107 108 109 111 112 112 113 114 114 112 111 111 112 113 113 113 113 114 115 114 113 113 115 120 122 117 107 96 86 79 75 73 75 77 78 79 80 81 82 83 83 82 79 74 65 58 50 43 30 12 352 341 317 292 286 292 302 305 304 300 296 292 287 283 278
111 110 110 110 110 111 112 114 115 116 117 118 117 115 114 115 116 116 116 115 115 115 114 113 113 116 118 118 107 95 87 82 80 80 80 80 81 82 82 82 82 82 83 85 85 85 84 82 79 72 60 40 15 354 345 345 336 329 327 335 337 330 321 314 311 306 300 292 284
109 109 110 111 112 113 115 117 118 119 119 119 117 117 116 117 118 117 117 116 116 116 115 115 116 115 111 100 88 81 78 78 81 85 87 89 88 87 86 84 83 83 84 84 83 81 79 78 81 84 86 79 37 10 358 352 346 343 343 347 344 336 328 324 323 318 313 307 298
109 109 110 110 112 114 117 120 121 120 120 119 118 117 118 119 118 118 117 118 118 118 116 113 110 103 94 85 80 79 80 83 87 90 93 95 94 92 89 87 86 86 87 85 83 79 75 72 71 75 85 111 91 47 10 358 347 340 334 335 329 321 316 314 313 312 310 308 304
110 110 110 111 112 116 120 122 122 121 120 118 117 118 118 119 118 119 119 121 120 117 111 105 99 92 85 80 81 83 86 90 93 95 95 96 95 94 92 89 86 87 88 87 84 82 77 72 62 58 64 92 84 55 15 332 311 299 295 296 295 294 295 296 297 298 300 300 300
111 111 112 113 117 120 123 124 122 120 118 117 117 118 118 119 119 119 120 119 115 110 104 98 92 87 84 84 87 89 92 94 95 96 96 95 93 91 89 86 83 82 83 83 82 81 78 70 57 49 51 66 76 66 342 261 252 254 259 260 272 278 282 285 287 288 289 289 289
112 113 115 118 121 122 123 122 120 118 117 117 118 119 119 118 117 116 114 110 104 100 97 95 91 89 89 92 94 96 96 96 96 96 96 95 93 89 85 80 77 76 77 77 75 72 68 60 50 44 44 52 75 106 248 248 247 250 253 253 259 266 270 272 278 284 291 299 305
114 116 119 121 120 120 119 118 117 117 118 119 120 119 117 114 112 110 106 102 97 94 92 91 91 92 94 97 98 99 100 99 98 97 96 95 92 88 83 78 74 73 73 72 69 65 59 54 49 45 43 41 44 257 257 261 264 267 271 271 278 285 291 297 308 322 335 343 346
118 120 120 119 117 115 115 115 117 118 120 120 119 116 113 110 107 104 101 97 95 93 92 91 93 95 98 100 101 101 101 101 100 99 97 94 92 88 83 78 73 71 71 69 66 62 58 55 53 51 47 35 340 280 274 277 275 278 287 299 313 323 330 335 341 348 353 356 354
121 120 117 114 113 113 114 116 118 120 120 119 116 112 109 106 103 100 97 95 94 94 94 94 96 98 101 103 104 104 104 103 102 100 98 95 92 89 85 80 77 73 71 69 66 64 62 60 60 61 60 42 326 294 299 305 304 309 319 327 332 334 337 341 345 348 350 351 354
120 117 114 113 114 116 118 119 120 120 118 115 111 108 106 104 102 99 97 96 95 94 94 95 96 98 101 103 105 106 106 105 103 100 97 94 92 89 85 80 76 72 70 70 69 69 69 68 69 71 69 23 343 350 25 21 14 12 9 5 358 353 350 350 351 356 5 16 28
119 116 115 116 118 120 121 121 120 118 114 110 106 103 102 101 100 100 100 99 98 97 95 94 95 96 97 99 102 103 104 104 102 100 97 94 91 88 83 76 71 68 68 71 73 74 75 73 74 75 71 28 2 11 34 45 38 29 23 16 8 360 356 357 5 22 39 50 51
119 119 119 120 121 122 121 121 118 114 110 106 103 102 100 99 99 100 101 102 102 100 99 98 96 96 96 97 97 98 100 102 102 100 98 94 90 86 80 72 61 58 63 73 78 79 78 76 74 70 59 30 20 24 33 41 39 31 24 18 9 3 2 10 31 52 63 65 59
121 121 122 122 122 121 120 118 115 110 107 104 104 103 103 103 103 103 104 104 104 103 101 100 98 97 97 97 97 97 97 99 101 100 97 92 88 85 79 69 47 39 55 74 81 82 80 78 74 65 51 29 31 34 36 38 36 30 24 21 15 15 20 32 48 61 66 63 55
122 122 122 122 121 120 118 116 112 110 108 107 107 107 107 107 107 106 106 105 105 105 104 101 100 99 98 98 98 97 97 97 97 97 94 90 87 85 80 68 38 29 52 77 83 84 83 81 77 70 61 48 46 48 50 48 43 38 35 33 33 35 39 48 52 55 54 50 44
122 122 122 121 120 119 117 115 113 111 111 111 111 111 111 110 109 108 107 104 104 105 105 104 102 101 100 100 99 97 95 93 92 92 91 91 89 85 79 65 38 31 54 78 85 86 86 84 81 77 71 65 61 66 75 74 60 52 48 46 46 46 48 51 50 47 41 38 37
122 122 122 121 120 119 117 115 113 113 113 114 114 114 114 112 111 109 107 103 103 104 104 104 104 103 101 99 98 96 94 91 90 90 91 92 89 85 78 62 38 31 52 77 85 87 87 86 84 81 77 74 70 75 81 77 66 59 54 51 52 52 50 46 43 39 33 29 28
122 122 122 121 120 119 118 116 114 113 113 114 115 115 115 113 112 110 108 106 105 105 105 105 105 104 103 100 98 97 96 94 93 92 91 90 86 82 76 62 38 27 45 74 84 86 86 85 83 81 79 77 69 64 66 68 65 61 56 52 53 53 49 39 33 30 27 23 20